When you browse on this site, cookies collect data to enhance your experience and personalize the content and advertising you see.
Visit our Privacy Policy to learn more. By continuing to use the site, you agree to this use of cookies and data.

Hourly Weather Kindia

Today, 6 July, Monday

Time Temperature Precipitation Wind Pressure Humidity
00:00 +25°C° 0 mm 2 mps 706 mmHg 88%
01:00 +24°C° 0 mm 2 mps 706 mmHg 89%
02:00 +24°C° 0 mm 1 mps 706 mmHg 89%
03:00 +24°C° 0 mm 1 mps 705 mmHg 90%
04:00 +24°C° 0 mm 1 mps 705 mmHg 90%
05:00 +24°C° 0.1 mm 1 mps 705 mmHg 90%
06:00 +24°C° 0.1 mm 1 mps 706 mmHg 90%
07:00 +24°C° 0.1 mm 1 mps 706 mmHg 89%
08:00 +25°C° 0 mm 2 mps 706 mmHg 86%
09:00 +26°C° 0 mm 2 mps 707 mmHg 82%
10:00 +27°C° 0 mm 3 mps 707 mmHg 78%
11:00 +28°C° 0.4 mm 3 mps 707 mmHg 74%
12:00 +29°C° 0.4 mm 3 mps 706 mmHg 70%
13:00 +30°C° 0.4 mm 3 mps 706 mmHg 66%
14:00 +30°C° 0.6 mm 3 mps 705 mmHg 67%
15:00 +30°C° 0.6 mm 2 mps 704 mmHg 69%
16:00 +29°C° 0.6 mm 2 mps 704 mmHg 71%
17:00 +28°C° 0 mm 2 mps 704 mmHg 74%
18:00 +27°C° 0 mm 1 mps 704 mmHg 78%
19:00 +24°C° 0 mm 0 mps 703 mmHg 82%
20:00 +26°C° 0.1 mm 1 mps 704 mmHg 83%
21:00 +26°C° 0.1 mm 1 mps 705 mmHg 84%
22:00 +25°C° 0.1 mm 1 mps 705 mmHg 86%
23:00 +25°C° 0.1 mm 1 mps 705 mmHg 87%

Tomorrow, 7 July, Tuesday

Time Temperature Precipitation Wind Pressure Humidity
00:00 +25°C° 0.1 mm 2 mps 705 mmHg 89%
01:00 +24°C° 0.1 mm 2 mps 705 mmHg 90%
02:00 +24°C° 0.1 mm 2 mps 704 mmHg 91%
03:00 +24°C° 0.1 mm 2 mps 704 mmHg 91%
04:00 +24°C° 0.1 mm 2 mps 704 mmHg 91%
05:00 +24°C° 0 mm 3 mps 704 mmHg 90%
06:00 +24°C° 0 mm 3 mps 705 mmHg 90%
07:00 +23°C° 0 mm 4 mps 705 mmHg 89%
08:00 +25°C° 0 mm 4 mps 706 mmHg 87%
09:00 +25°C° 0 mm 4 mps 706 mmHg 84%
10:00 +26°C° 0 mm 4 mps 706 mmHg 82%
11:00 +28°C° 0 mm 4 mps 706 mmHg 75%
12:00 +29°C° 0 mm 4 mps 706 mmHg 68%
13:00 +32°C° 0 mm 4 mps 705 mmHg 61%
14:00 +31°C° 0 mm 3 mps 705 mmHg 60%
15:00 +31°C° 0 mm 3 mps 704 mmHg 60%
16:00 +31°C° 0 mm 3 mps 703 mmHg 60%
17:00 +30°C° 1.2 mm 3 mps 704 mmHg 68%
18:00 +28°C° 1.2 mm 2 mps 704 mmHg 76%
19:00 +26°C° 1.2 mm 2 mps 704 mmHg 84%
20:00 +25°C° 0.5 mm 3 mps 704 mmHg 85%
21:00 +25°C° 0.5 mm 3 mps 705 mmHg 87%
22:00 +25°C° 0.5 mm 3 mps 705 mmHg 88%
23:00 +24°C° 0.2 mm 3 mps 705 mmHg 90%

Day after tomorrow, 8 July, Wednesday

Time Temperature Precipitation Wind Pressure Humidity
00:00 +24°C° 0.2 mm 3 mps 706 mmHg 92%
01:00 +24°C° 0.2 mm 3 mps 706 mmHg 93%
02:00 +22°C° 0.4 mm 3 mps 706 mmHg 93%
03:00 +22°C° 0.4 mm 3 mps 705 mmHg 93%
04:00 +23°C° 0.4 mm 2 mps 705 mmHg 93%
05:00 +23°C° 0.4 mm 2 mps 705 mmHg 93%
06:00 +23°C° 0.4 mm 2 mps 706 mmHg 93%
07:00 +23°C° 0.4 mm 2 mps 706 mmHg 93%
08:00 +24°C° 0 mm 2 mps 707 mmHg 87%
09:00 +26°C° 0 mm 3 mps 707 mmHg 81%
10:00 +27°C° 0 mm 3 mps 708 mmHg 75%
11:00 +28°C° 0 mm 3 mps 707 mmHg 70%
12:00 +30°C° 0 mm 3 mps 707 mmHg 64%
13:00 +31°C° 0 mm 3 mps 707 mmHg 59%
14:00 +31°C° 0 mm 2 mps 706 mmHg 59%
15:00 +31°C° 0 mm 2 mps 705 mmHg 58%
16:00 +31°C° 0 mm 2 mps 705 mmHg 57%
17:00 +30°C° 0 mm 2 mps 705 mmHg 64%
18:00 +28°C° 0 mm 2 mps 705 mmHg 71%
19:00 +26°C° 0 mm 2 mps 705 mmHg 78%
20:00 +26°C° 0 mm 2 mps 705 mmHg 80%
21:00 +25°C° 0 mm 2 mps 706 mmHg 82%
22:00 +25°C° 0 mm 2 mps 706 mmHg 84%
23:00 +24°C° 0.7 mm 1 mps 706 mmHg 85%

9 July, Thursday

Time Temperature Precipitation Wind Pressure Humidity
00:00 +24°C° 0.7 mm 1 mps 706 mmHg 86%
01:00 +24°C° 0.7 mm 1 mps 706 mmHg 88%
02:00 +24°C° 0.1 mm 1 mps 706 mmHg 87%
03:00 +24°C° 0.1 mm 1 mps 706 mmHg 87%
04:00 +24°C° 0.1 mm 1 mps 706 mmHg 87%
05:00 +24°C° 0 mm 1 mps 706 mmHg 88%
06:00 +24°C° 0 mm 1 mps 706 mmHg 90%
07:00 +24°C° 0 mm 1 mps 707 mmHg 91%
08:00 +25°C° 0.2 mm 2 mps 707 mmHg 88%
09:00 +25°C° 0.2 mm 2 mps 707 mmHg 86%
10:00 +26°C° 0.2 mm 2 mps 708 mmHg 83%
11:00 +26°C° 0.4 mm 3 mps 708 mmHg 82%
12:00 +27°C° 0.4 mm 3 mps 707 mmHg 81%
13:00 +27°C° 0.4 mm 3 mps 707 mmHg 79%
14:00 +27°C° 0.9 mm 3 mps 707 mmHg 79%
15:00 +27°C° 0.9 mm 2 mps 706 mmHg 78%
16:00 +28°C° 0.9 mm 1 mps 706 mmHg 78%
17:00 +26°C° 0.3 mm 1 mps 706 mmHg 81%
18:00 +25°C° 0.3 mm 1 mps 706 mmHg 84%
19:00 +24°C° 0.3 mm 1 mps 705 mmHg 87%
20:00 +24°C° 0 mm 1 mps 706 mmHg 88%
21:00 +23°C° 0 mm 1 mps 706 mmHg 90%
22:00 +21°C° 0 mm 0 mps 706 mmHg 92%
23:00 +23°C° 0 mm 1 mps 706 mmHg 91%

10 July, Friday

Time Temperature Precipitation Wind Pressure Humidity
00:00 +23°C° 0 mm 1 mps 706 mmHg 91%
01:00 +23°C° 0 mm 1 mps 706 mmHg 91%
02:00 +23°C° 0 mm 1 mps 706 mmHg 92%
03:00 +23°C° 0 mm 2 mps 706 mmHg 93%
04:00 +23°C° 0 mm 2 mps 706 mmHg 94%
05:00 +23°C° 0 mm 2 mps 706 mmHg 94%
06:00 +23°C° 0 mm 2 mps 706 mmHg 93%
07:00 +23°C° 0 mm 2 mps 707 mmHg 93%
08:00 +24°C° 0 mm 3 mps 707 mmHg 88%
09:00 +26°C° 0 mm 3 mps 707 mmHg 83%
10:00 +27°C° 0 mm 3 mps 707 mmHg 78%
11:00 +28°C° 0 mm 3 mps 707 mmHg 72%
12:00 +29°C° 0 mm 3 mps 707 mmHg 66%
13:00 +31°C° 0 mm 3 mps 706 mmHg 60%
14:00 +31°C° 0.1 mm 2 mps 706 mmHg 60%
15:00 +31°C° 0.1 mm 2 mps 705 mmHg 60%
16:00 +31°C° 0.1 mm 1 mps 705 mmHg 60%
17:00 +29°C° 1.7 mm 1 mps 705 mmHg 68%
18:00 +27°C° 1.7 mm 1 mps 705 mmHg 76%
19:00 +25°C° 1.7 mm 1 mps 705 mmHg 85%
20:00 +25°C° 0.2 mm 1 mps 706 mmHg 86%
21:00 +25°C° 0.2 mm 1 mps 706 mmHg 87%
22:00 +24°C° 0.2 mm 1 mps 706 mmHg 88%
23:00 +24°C° 1 mm 3 mps 706 mmHg 90%

11 July, Saturday

Time Temperature Precipitation Wind Pressure Humidity
00:00 +22°C° 1 mm 4 mps 706 mmHg 92%
01:00 +22°C° 1 mm 5 mps 706 mmHg 94%
02:00 +22°C° 1.1 mm 5 mps 706 mmHg 94%
03:00 +21°C° 1.1 mm 4 mps 706 mmHg 94%
04:00 +21°C° 1.1 mm 4 mps 706 mmHg 94%
05:00 +21°C° 0.8 mm 3 mps 707 mmHg 95%
06:00 +21°C° 0.8 mm 3 mps 707 mmHg 95%
07:00 +21°C° 0.8 mm 3 mps 707 mmHg 95%
08:00 +22°C° 0.5 mm 3 mps 708 mmHg 93%
09:00 +22°C° 0.5 mm 4 mps 708 mmHg 92%
10:00 +22°C° 0.5 mm 4 mps 708 mmHg 90%
11:00 +23°C° 0.1 mm 4 mps 708 mmHg 88%
12:00 +23°C° 0.1 mm 4 mps 707 mmHg 86%
13:00 +25°C° 0.1 mm 3 mps 707 mmHg 84%
14:00 +25°C° 0 mm 3 mps 706 mmHg 81%
15:00 +26°C° 0 mm 3 mps 706 mmHg 79%
16:00 +26°C° 0 mm 2 mps 706 mmHg 76%
17:00 +25°C° 0.1 mm 2 mps 706 mmHg 80%
18:00 +24°C° 0.1 mm 1 mps 706 mmHg 84%
19:00 +23°C° 0.1 mm 1 mps 706 mmHg 88%
20:00 +23°C° 0 mm 1 mps 706 mmHg 87%
21:00 +23°C° 0 mm 1 mps 706 mmHg 87%
22:00 +23°C° 0 mm 2 mps 707 mmHg 86%
23:00 +23°C° 0 mm 2 mps 706 mmHg 87%
Show more